Flag for Canada Weather past 2 weeks in Toronto, Ontario, Canada

Now
59 °F

Passing clouds.


Feels Like: 58 °F
Forecast: 60 / 75 °F
Wind: 8 mph from West

Location: Toronto Pearson International Airport

Current Time: Aug 5, 2015 at 7:22:45 AM

Latest Report: Aug 5, 2015 at 7:00 AM


Visibility: 15 mi

Pressure: 29.96 "Hg

Humidity: 72%

Dew point: 50 °F

Location of TorontoLocation

Historic Weather in Toronto — Graph

°F

Toronto temperature yesterday

Maximum temperature yesterday: 79 °F (at 5:00 PM)
Minimum temperature yesterday: 64 °F (at 5:00 AM)
Average temperature yesterday: 70 °F

Past Weeks' High & Low Weather Summary

 TemperatureHumidityPressure
High91 °F (Jul 28, 3:00 PM)88% (Aug 2, 10:53 PM)30.03 "Hg (Aug 2, 10:53 PM)
Low57 °F (Aug 5, 6:00 AM)30% (Jul 24, 12:00 PM)29.59 "Hg (Aug 3, 3:00 AM)
Average74 °F56%29.86 "Hg
* Reported Jul 21 6:00 AM — Aug 5 6:00 AM, Toronto, Weather by CustomWeather, © 2015

Note: Actual official high and low records may vary slightly from our data, if they occured in-between our weather recording intervals... More about our weather records

Advertising

Toronto weather history for previous 24 hours

 ConditionsComfort  
Time TempWeatherWind HumidityBarometerVisibility
6:00 AM
Wed, Aug 5
57 °FPassing clouds.8 mph82%29.94 "Hg15 mi
5:00 AM59 °FPassing clouds.8 mph77%29.94 "Hg15 mi
4:00 AM59 °FPassing clouds.8 mph77%29.93 "Hg15 mi
3:00 AM61 °FPassing clouds.12 mph72%29.94 "Hg15 mi
2:00 AM63 °FPassing clouds.13 mph68%29.94 "Hg15 mi
1:00 AM63 °FPassing clouds.14 mph73%29.95 "Hg15 mi
12:00 AM64 °FPassing clouds.15 mph78%29.94 "Hg15 mi
11:00 PM
Tue, Aug 4
66 °FPassing clouds.12 mph73%29.90 "Hg15 mi
10:00 PM66 °FPassing clouds.7 mph78%29.90 "Hg15 mi
9:00 PM66 °FPartly sunny.7 mph78%29.89 "Hg15 mi
8:00 PM68 °FBroken clouds.8 mph73%29.88 "Hg15 mi
7:00 PM66 °FPartly sunny.9 mph78%29.87 "Hg15 mi
6:00 PM73 °FScattered showers. Partly sunny.16 mph53%29.85 "Hg15 mi
5:00 PM79 °FPartly sunny.20 mph42%29.84 "Hg15 mi
4:00 PM75 °FSprinkles. Partly sunny.17 mph50%29.84 "Hg15 mi
3:00 PM77 °FScattered showers. Partly sunny.13 mph51%29.85 "Hg15 mi
2:00 PM77 °FPartly sunny.18 mph44%29.86 "Hg15 mi
1:00 PM75 °FBroken clouds.8 mph50%29.86 "Hg15 mi
12:00 PM75 °FPartly sunny.14 mph50%29.87 "Hg15 mi
11:00 AM73 °FPartly sunny.8 mph53%29.88 "Hg15 mi
10:00 AM72 °FPassing clouds.3 mph57%29.87 "Hg15 mi
9:00 AM70 °FPassing clouds.6 mph60%29.87 "Hg15 mi
8:00 AM66 °FScattered clouds.8 mph68%29.87 "Hg15 mi
7:00 AM64 °FPassing clouds.6 mph68%29.85 "Hg15 mi
Weather by CustomWeather, © 2015

See weather overviewHow to use our weather pages